Lapse_Rate
6.8 6.7 6.6 6.5 6.4 6.3 6.3 6.1 6.0 6.0 6.0 6.0 6.0 6.1 6.1 6.3 6.2 6.2 6.2 6.3 6.3 6.3 6.2 6.2 6.3 6.2 6.4 6.3 6.2 6.3 6.1 6.0 6.0 6.0 5.8 5.6 5.5 5.4 5.4 5.3 5.3 5.3 5.3
6.9 6.7 6.6 6.5 6.4 6.3 6.3 6.1 6.0 5.9 5.8 5.9 5.9 6.0 6.2 6.3 6.2 6.2 6.3 6.3 6.3 6.4 6.5 6.6 6.6 6.4 6.4 6.3 6.2 6.3 6.3 6.3 6.1 6.1 6.0 5.8 5.7 5.6 5.5 5.3 5.2 5.3 5.3
6.9 6.7 6.6 6.5 6.4 6.2 6.1 6.0 5.9 5.8 5.8 5.9 6.1 6.1 6.2 6.2 6.2 6.3 6.3 6.5 6.5 6.6 6.7 6.7 6.6 6.5 6.5 6.4 6.3 6.3 6.3 6.3 6.2 6.1 6.1 5.9 5.9 5.8 5.6 5.5 5.4 5.3 5.2
7.0 6.8 6.6 6.4 6.2 6.1 6.0 5.7 5.6 5.8 5.8 5.8 5.8 6.0 6.1 6.2 6.3 6.4 6.5 6.6 6.7 6.7 6.7 6.6 6.5 6.4 6.3 6.3 6.2 6.2 6.2 6.3 6.3 6.2 6.2 6.1 6.0 6.0 6.0 5.8 5.7 5.6 5.5
7.0 6.7 6.5 6.2 6.0 5.9 5.7 5.5 5.5 5.6 5.7 5.6 5.8 5.9 6.0 6.2 6.3 6.5 6.6 6.6 6.5 6.4 6.4 6.3 6.3 6.3 6.2 6.2 6.1 6.1 6.1 6.1 6.1 6.1 6.0 5.9 6.0 6.1 6.1 6.0 5.9 5.8 5.8
6.8 6.7 6.4 6.1 5.9 5.7 5.6 5.4 5.5 5.7 5.8 5.8 5.8 5.9 6.0 6.2 6.3 6.5 6.5 6.4 6.4 6.2 6.1 5.9 5.9 5.9 5.9 5.8 5.9 5.9 6.0 6.0 6.0 6.0 5.9 5.9 5.9 6.1 6.1 6.0 6.0 6.0 6.1
6.8 6.5 6.1 5.9 5.7 5.6 5.5 5.4 5.5 5.6 5.7 5.9 5.9 5.7 6.0 6.1 6.3 6.4 6.3 6.1 6.0 5.9 5.8 5.7 5.8 5.8 5.8 5.8 5.8 5.8 5.8 5.8 5.8 5.7 5.7 5.7 5.8 6.0 6.1 6.1 6.4 6.5 6.5
6.4 6.2 6.0 5.8 5.5 5.5 5.4 5.5 5.5 5.5 5.7 6.0 6.1 6.3 6.5 6.5 6.6 6.5 6.3 6.2 6.0 6.0 5.9 5.9 5.8 5.7 5.7 5.7 5.7 5.7 5.7 5.6 5.6 5.6 5.6 5.7 5.8 5.9 5.9 5.9 6.1 6.3 6.4
6.2 6.1 5.9 5.6 5.5 5.4 5.4 5.4 5.4 5.5 5.6 5.9 6.1 6.2 6.5 6.8 6.8 6.8 6.5 6.3 6.1 6.1 6.1 6.1 6.1 6.0 5.9 5.9 5.9 5.8 5.7 5.8 5.7 5.7 5.7 5.7 5.6 5.6 5.6 5.7 5.8 5.9 6.0
6.1 5.9 5.8 5.6 5.4 5.4 5.3 5.2 5.3 5.4 5.6 5.8 6.0 6.2 6.3 6.3 6.5 6.9 7.2 7.0 6.7 6.5 6.3 6.2 6.2 6.1 6.0 5.9 5.9 5.8 5.9 6.0 6.0 6.0 6.0 5.9 5.7 5.6 5.5 5.4 5.4 5.3 5.1
5.9 5.8 5.6 5.5 5.4 5.3 5.2 5.2 5.3 5.4 5.6 5.8 6.1 6.2 6.1 6.0 6.0 6.0 6.5 6.9 6.8 6.7 6.6 6.5 6.4 6.4 6.4 6.5 6.6 6.6 6.5 6.3 6.1 5.8 5.5 5.2 5.1 4.9 4.7 4.5 4.3 4.3 4.2
5.8 5.7 5.5 5.4 5.3 5.3 5.2 5.3 5.3 5.3 5.6 5.9 6.1 6.1 6.1 6.1 6.2 6.1 6.2 6.3 6.4 6.5 6.6 6.5 6.4 6.5 6.3 6.2 6.2 6.1 5.9 5.8 5.5 5.2 5.0 4.6 4.3 4.1 3.9 3.7 3.7 3.5 3.4
5.7 5.7 5.5 5.4 5.4 5.3 5.4 5.4 5.3 5.4 5.7 5.9 5.9 5.8 5.9 5.9 5.9 5.8 5.8 5.9 5.9 6.1 6.0 5.9 6.0 5.8 5.7 5.5 5.3 5.2 5.0 4.6 4.3 4.1 4.1 3.9 3.6 3.4 3.3 3.3 3.0 2.0 1.4
5.8 5.7 5.5 5.5 5.5 5.6 5.5 5.3 5.3 5.6 5.8 5.8 5.8 5.9 5.7 5.6 5.4 5.3 5.4 5.5 5.8 6.0 5.9 5.8 5.6 5.2 4.9 4.7 4.3 3.9 3.6 3.4 3.3 3.0 2.8 2.8 3.0 3.1 3.0 2.7 2.3 2.1 2.0
5.8 5.7 5.6 5.6 5.7 5.6 5.5 5.4 5.6 5.7 5.7 5.8 5.7 5.5 5.4 5.2 5.2 5.2 5.1 5.0 5.0 5.5 6.1 5.7 5.2 4.6 4.2 3.9 3.6 3.2 2.8 2.3 1.9 1.7 2.0 2.6 3.0 3.3 3.5 3.9 3.8 3.6 2.9
5.8 5.7 5.8 5.8 5.7 5.6 5.5 5.6 5.6 5.7 5.8 5.6 5.3 5.2 5.2 5.1 5.0 4.9 4.7 4.7 4.6 4.5 5.4 4.8 4.7 4.2 3.8 3.3 3.0 2.4 2.0 1.9 2.2 2.9 3.3 3.4 3.6 3.8 3.9 3.7 4.1 4.4 4.1
5.7 5.9 5.9 5.8 5.7 5.6 5.6 5.5 5.7 5.7 5.4 5.3 5.1 5.0 4.9 5.0 4.9 4.7 4.5 4.4 4.2 4.1 4.3 5.2 4.3 4.0 3.3 3.0 2.7 2.3 2.5 3.0 3.8 4.3 4.5 4.6 4.7 4.2 4.3 4.7 4.9 5.0 4.8
5.9 6.0 5.9 5.8 5.7 5.7 5.5 5.7 5.6 5.4 5.3 5.0 5.0 5.0 5.0 4.8 4.8 4.5 4.3 4.2 4.0 3.8 3.7 4.0 3.9 3.3 3.1 2.9 3.3 4.0 4.1 4.6 4.6 4.7 4.6 4.6 4.5 4.6 4.4 4.2 4.1 4.3 4.5
6.0 6.0 5.9 5.8 5.8 5.6 5.6 5.5 5.4 5.1 5.0 4.9 4.9 4.9 4.8 4.8 4.6 4.3 4.2 4.0 3.8 3.7 3.5 3.1 3.0 3.0 3.4 4.0 4.2 4.6 4.6 4.9 4.7 4.5 4.4 4.1 4.0 3.8 4.1 3.8 3.7 3.8 4.0
6.0 6.0 5.9 5.9 5.7 5.5 5.4 5.4 5.1 5.0 4.9 4.9 4.7 4.8 4.7 4.5 4.3 4.0 3.9 3.7 3.4 3.2 2.8 2.4 2.7 3.7 4.1 4.2 4.3 4.5 4.8 4.9 4.7 4.4 4.4 4.5 4.1 4.3 4.0 3.6 3.6 3.8 3.9
6.0 6.0 5.8 5.6 5.4 5.4 5.3 5.1 5.0 5.0 4.9 4.9 4.8 4.6 4.5 4.2 3.9 3.7 3.5 3.2 2.9 2.8 2.7 2.8 3.5 4.0 4.2 4.5 4.6 4.7 4.6 4.8 5.4 4.0 4.5 5.4 4.7 5.1 4.7 4.5 4.3 4.2 3.9
6.0 5.8 5.6 5.4 5.3 5.2 5.1 4.9 4.8 4.8 4.9 4.8 4.7 4.6 4.2 3.9 3.7 3.6 3.3 2.8 2.7 2.9 3.2 3.7 4.2 4.3 4.1 4.2 4.3 4.4 4.5 4.7 5.7 4.9 4.1 5.8 4.5 5.1 4.3 4.3 4.2 4.3 4.3
5.7 5.5 5.4 5.3 5.2 5.1 4.9 4.8 4.8 4.9 4.7 4.7 4.5 4.1 3.9 3.7 3.5 3.4 2.9 3.0 3.8 4.1 3.9 4.0 4.1 3.9 4.2 4.2 4.2 4.7 4.9 4.8 5.1 4.7 3.8 5.6 4.5 5.1 4.5 4.4 4.1 4.4 4.8
5.5 5.5 5.3 5.2 5.1 4.9 4.9 4.9 4.8 4.8 4.8 4.4 4.1 3.8 3.7 3.4 3.3 3.1 3.0 3.6 4.4 4.4 4.5 4.5 4.2 4.1 4.1 4.1 3.9 4.0 4.2 4.7 5.1 4.7 3.5 5.0 4.5 5.0 5.1 4.9 5.2 5.3 5.4
5.4 5.3 5.2 5.0 4.9 4.8 4.8 4.8 4.8 4.7 4.4 3.9 3.9 3.6 3.5 3.3 3.2 2.9 3.2 4.3 4.7 4.8 5.0 4.6 4.1 3.9 3.9 4.0 3.6 3.8 3.9 4.1 4.7 5.2 4.0 4.9 5.1 6.1 6.0 6.2 6.2 6.1 6.0
5.3 5.1 4.9 4.8 4.8 4.8 4.8 4.8 4.5 4.2 3.9 4.1 3.9 3.6 3.2 3.1 3.1 3.5 4.3 4.5 4.9 5.2 5.2 5.2 5.2 4.7 4.3 3.9 3.4 3.2 3.1 3.7 3.9 5.1 4.2 5.0 5.2 5.0 7.5 6.5 6.3 6.5 6.6
Wind_Speed
3 7 8 7 7 7 8 7 6 6 6 6 6 6 5 4 5 5 6 12 12 12 12 12 13 13 11 13 12 11 11 12 13 12 12 11 10 10 10 11 11 11 11
8 7 7 6 7 8 7 7 6 5 5 5 4 5 4 4 4 5 5 9 13 12 13 12 13 14 12 13 13 11 11 11 13 12 13 14 11 11 12 12 12 12 13
11 9 6 5 6 7 7 6 5 6 4 5 4 3 3 4 5 6 6 6 7 11 13 14 15 15 14 14 14 12 12 13 13 14 15 15 15 14 14 14 15 16 16
13 10 5 5 7 6 7 5 4 4 4 5 4 3 2 4 4 4 5 6 6 6 8 14 16 16 15 16 16 14 14 16 17 17 18 17 15 14 15 17 18 18 19
13 11 8 8 8 7 6 4 5 4 5 6 5 3 3 3 3 4 5 4 6 6 5 7 14 14 16 16 17 16 15 19 18 18 20 18 16 17 19 21 21 21 21
14 13 12 9 8 6 5 4 5 5 4 6 5 4 2 2 3 1 1 3 1 4 7 6 12 14 16 17 17 17 18 21 21 20 21 19 18 20 23 25 24 24 23
13 13 11 9 8 7 6 4 2 4 6 7 4 5 2 1 2 3 3 5 0 5 6 6 14 15 17 17 17 20 21 22 23 22 22 21 22 24 27 25 22 23 25
13 14 11 7 7 6 6 6 4 2 2 6 3 1 4 2 3 4 3 2 4 6 12 15 17 19 16 18 17 22 22 22 24 23 23 23 25 27 28 26 28 29 30
14 15 13 10 7 5 5 5 5 4 3 4 7 4 2 2 5 4 5 4 6 7 10 14 17 17 19 18 18 18 19 23 24 24 25 27 28 30 29 29 32 33 34
14 14 14 12 9 6 6 5 4 4 2 4 2 4 2 2 3 5 3 6 4 11 11 10 13 17 17 16 18 20 23 25 25 28 30 30 31 32 32 33 34 35 35
13 13 12 11 7 5 5 6 4 4 3 2 2 2 1 2 3 4 9 7 10 9 10 7 14 13 15 16 16 18 22 26 29 30 31 33 33 34 35 36 37 37 38
7 11 11 9 8 7 5 4 4 4 3 3 1 1 1 2 4 5 7 12 13 9 12 11 7 11 14 15 16 23 27 30 30 31 33 34 35 36 37 38 38 38 39
6 7 8 7 5 7 6 5 4 3 2 2 1 2 3 4 4 5 8 11 9 12 6 6 7 10 14 13 20 27 28 31 31 32 33 34 35 36 37 38 39 39 40
8 9 8 8 8 7 6 4 2 2 1 1 1 3 4 4 4 5 7 9 13 10 11 12 9 7 8 21 22 28 25 27 30 33 35 36 37 39 39 40 40 37 39
8 8 9 7 7 6 5 3 2 2 2 1 3 4 4 5 5 6 6 7 8 12 15 11 5 12 17 21 22 25 25 28 30 33 35 37 39 39 37 37 36 36 37
10 9 8 7 6 5 3 2 2 2 2 3 3 5 5 5 6 6 7 7 8 11 13 12 13 15 15 18 24 26 26 30 31 32 34 36 37 37 38 41 41 43 43
9 9 8 6 5 3 2 2 2 1 4 5 5 5 7 7 6 7 7 8 9 10 14 16 13 15 18 18 17 22 21 21 23 31 36 38 40 39 39 39 40 39 39
9 8 7 6 4 3 2 2 2 3 4 5 6 6 8 7 10 9 8 10 10 12 12 20 17 14 17 18 18 16 13 21 20 26 34 35 36 38 38 37 37 37 37
9 7 6 5 3 2 1 2 3 4 4 4 4 7 9 9 10 9 10 10 11 11 11 12 16 14 13 11 15 16 15 16 17 27 33 33 33 35 36 36 35 35 34
8 7 5 4 3 2 2 3 5 5 4 4 5 8 9 9 11 11 11 13 11 12 13 13 13 10 12 14 13 13 13 12 12 14 24 27 32 32 34 34 34 33 33
7 6 5 3 2 2 3 6 5 5 6 6 7 9 9 12 18 17 11 13 15 12 12 9 11 12 13 13 14 13 13 14 14 12 13 12 12 13 15 24 27 31 31
6 5 4 2 3 3 9 10 10 7 6 7 10 11 10 14 14 19 21 24 20 14 12 11 12 14 17 14 14 13 13 14 15 11 11 16 12 14 13 13 27 31 32
5 4 3 3 3 5 9 11 13 8 6 8 11 11 11 9 15 14 19 23 21 18 20 16 17 16 17 16 14 15 17 15 15 14 15 17 13 14 13 14 30 32 33
4 2 3 3 4 4 10 13 14 8 8 10 11 12 12 13 13 16 16 12 14 14 14 12 15 15 15 15 16 15 16 17 14 13 13 15 13 14 14 13 31 32 32
3 2 1 3 5 5 11 13 13 9 9 11 11 12 11 13 20 25 15 14 16 15 17 23 23 23 27 26 20 12 11 12 14 14 13 11 12 13 14 16 13 22 25
1 2 3 3 6 6 11 14 13 8 10 10 11 11 14 16 25 24 16 15 14 16 14 13 15 17 17 17 21 13 10 11 12 12 9 8 13 11 8 8 8 13 11
Wind_Direction
140 115 103 86 82 78 72 71 62 49 39 27 40 36 46 69 58 70 64 48 54 60 49 44 32 25 26 19 8 6 6 8 1 358 354 346 339 333 320 311 310 310 304
129 114 107 95 80 76 77 74 61 49 39 23 29 32 42 66 70 76 67 64 59 57 49 40 32 24 15 6 356 356 355 353 349 344 337 334 325 323 321 319 316 313 307
127 119 106 95 92 86 87 82 70 49 31 16 23 16 35 79 93 72 76 68 60 58 50 38 27 16 4 356 349 343 340 336 332 328 324 315 307 303 306 305 305 303 299
125 117 111 104 99 94 83 67 41 43 15 359 354 2 12 180 98 85 85 68 61 58 46 35 23 9 358 347 338 328 328 327 321 318 316 307 302 306 305 302 298 293 291
120 118 111 111 106 93 77 69 56 35 13 350 337 343 329 186 146 115 82 79 63 44 18 14 12 5 352 338 331 322 323 320 316 312 310 304 299 302 303 300 296 288 285
119 125 114 112 106 90 74 72 70 55 17 342 322 338 38 134 178 168 50 7 81 37 3 356 355 346 340 331 326 318 317 315 313 307 305 297 295 298 298 293 285 282 281
127 127 108 107 91 82 78 59 92 46 28 360 345 349 33 62 239 258 298 334 63 356 353 341 345 338 331 325 322 319 311 311 311 303 299 295 294 297 295 285 285 285 283
131 113 113 103 101 101 82 65 55 87 45 24 17 324 5 348 23 307 325 36 338 337 340 340 334 326 323 318 314 314 313 310 307 302 298 295 295 296 290 288 286 284 283
115 110 107 109 102 97 95 80 63 58 56 56 46 32 349 331 334 322 317 324 337 334 326 324 318 314 314 313 312 312 310 307 303 298 296 294 293 292 286 287 284 282 278
110 109 109 108 107 109 106 96 80 72 77 46 72 46 53 292 321 309 269 288 309 316 310 309 310 311 307 309 308 307 309 306 301 300 297 293 294 291 288 286 285 282 279
107 108 110 111 113 109 101 98 90 74 66 76 45 2 350 296 256 259 303 304 304 309 309 303 306 298 305 305 307 308 307 306 303 300 298 295 291 290 291 288 285 283 282
113 107 107 110 111 107 102 95 93 80 84 78 53 228 281 296 290 282 290 303 302 311 315 302 299 309 306 305 307 311 308 306 302 299 298 296 293 291 290 288 287 285 284
128 123 123 120 109 108 100 97 84 70 72 34 319 292 263 267 270 280 295 301 301 307 299 299 295 291 297 299 310 307 305 305 305 303 300 297 295 294 292 289 286 283 283
129 130 121 118 114 107 96 81 68 51 46 351 296 276 291 282 267 272 285 303 310 300 300 309 295 295 299 306 300 302 297 297 298 299 297 295 296 296 293 290 287 288 285
127 126 125 118 107 99 88 70 45 10 357 349 311 299 290 291 278 280 271 279 296 306 304 310 309 306 306 302 296 295 297 295 295 295 295 296 294 292 294 291 285 288 286
124 125 119 111 105 96 81 49 20 13 338 331 313 300 297 297 296 288 277 276 272 285 292 307 303 306 301 296 292 292 296 296 293 295 293 292 298 292 290 289 287 286 288
125 119 117 113 104 92 58 31 7 327 323 312 308 310 309 312 303 302 293 281 277 279 283 295 299 300 301 295 299 299 295 291 287 287 290 293 293 293 291 289 288 286 284
116 117 116 110 105 84 47 10 334 312 306 315 324 323 319 319 308 301 293 288 284 283 283 289 297 296 296 305 303 305 296 293 293 291 292 291 294 295 292 289 288 286 285
116 114 113 106 91 52 14 314 287 298 304 309 314 319 317 315 308 302 296 292 286 283 279 279 290 296 304 306 302 299 301 296 293 295 290 290 290 289 290 289 287 287 285
118 113 101 96 75 7 323 303 293 296 295 299 309 313 307 303 303 299 293 288 288 291 289 285 287 299 304 308 302 305 301 296 297 295 287 286 286 287 287 287 286 285 285
109 105 105 82 33 338 326 317 307 311 308 298 303 302 298 298 304 301 298 304 298 296 291 289 307 306 303 308 306 305 298 301 299 295 290 289 290 287 284 283 281 282 282
104 101 87 60 9 337 320 323 328 320 312 300 305 305 300 300 296 293 305 299 301 299 303 308 304 299 302 305 300 300 298 307 304 301 300 293 291 288 286 283 283 284 282
109 95 61 21 348 322 325 330 326 320 312 306 305 305 304 297 298 297 292 291 294 293 302 301 300 296 296 296 296 302 302 299 297 299 301 293 296 289 289 283 286 285 283
96 74 34 345 331 334 330 327 324 319 307 305 300 301 296 290 296 298 303 305 309 301 301 299 292 291 289 297 302 301 301 296 291 292 295 289 296 290 293 287 286 284 284
82 46 329 352 340 319 327 327 326 318 310 305 302 292 288 302 309 309 319 312 307 308 301 297 295 299 302 302 304 302 298 303 300 301 303 291 298 301 296 289 280 281 285
59 10 359 345 317 323 326 328 325 317 315 312 306 303 301 313 314 318 318 315 312 306 305 301 310 304 304 302 302 299 298 294 298 305 303 305 305 316 310 283 291 294 284